TimeEST,TemperatureF,Dew PointF,Humidity,Sea Level PressureIn,VisibilityMPH,Wind Direction,Wind SpeedMPH,Gust SpeedMPH,PrecipitationIn,Events,Conditions,WindDirDegrees,DateUTC
12:53 AM,21.9,19.0,89,30.25,10.0,Calm,Calm,-,N/A,,Clear,0,2012-12-07 05:53:00
1:53 AM,23.0,19.9,88,30.23,10.0,Calm,Calm,-,N/A,,Clear,0,2012-12-07 06:53:00
2:53 AM,24.1,21.0,88,30.22,10.0,Calm,Calm,-,N/A,,Clear,0,2012-12-07 07:53:00
3:53 AM,24.1,21.9,91,30.21,10.0,Calm,Calm,-,N/A,,Clear,0,2012-12-07 08:53:00
4:53 AM,24.1,21.0,88,30.19,10.0,Calm,Calm,-,N/A,,Clear,0,2012-12-07 09:53:00
5:53 AM,24.1,21.0,88,30.19,10.0,Calm,Calm,-,N/A,,Clear,0,2012-12-07 10:53:00
6:53 AM,25.0,23.0,92,30.17,10.0,Calm,Calm,-,N/A,,Mostly Cloudy,0,2012-12-07 11:53:00
7:53 AM,25.0,23.0,92,30.17,9.0,Calm,Calm,-,N/A,,Overcast,0,2012-12-07 12:53:00
8:53 AM,27.0,23.0,85,30.17,10.0,Calm,Calm,-,N/A,,Overcast,0,2012-12-07 13:53:00
9:53 AM,28.9,24.1,82,30.16,10.0,Calm,Calm,-,N/A,,Scattered Clouds,0,2012-12-07 14:53:00
10:53 AM,33.1,24.1,70,30.14,10.0,SW,4.6,-,N/A,,Clear,220,2012-12-07 15:53:00
11:53 AM,35.1,26.1,70,30.12,10.0,SSW,5.8,-,N/A,,Partly Cloudy,200,2012-12-07 16:53:00
12:53 PM,37.0,28.0,70,30.10,10.0,SSW,11.5,17.3,N/A,,Overcast,210,2012-12-07 17:53:00
1:53 PM,37.0,28.9,73,30.09,10.0,SSW,9.2,-,N/A,,Overcast,200,2012-12-07 18:53:00
2:06 PM,37.4,28.4,70,30.05,10.0,SSW,8.1,-,N/A,,Overcast,200,2012-12-07 19:06:00
2:53 PM,36.0,30.9,82,30.09,9.0,SSW,8.1,-,0.00,,Overcast,210,2012-12-07 19:53:00
3:11 PM,35.6,32.0,87,30.06,4.0,SSW,5.8,-,0.00,Rain,Light Rain,210,2012-12-07 20:11:00
3:31 PM,33.8,32.0,93,30.06,3.0,SSW,4.6,-,0.02,Snow,Light Snow,210,2012-12-07 20:31:00
3:43 PM,33.8,33.8,100,30.06,3.0,West,3.5,-,0.03,Rain,Light Rain,260,2012-12-07 20:43:00
3:53 PM,33.1,32.0,96,30.09,2.0,Calm,Calm,-,0.04,Snow,Light Snow,0,2012-12-07 20:53:00
4:09 PM,33.8,32.0,93,30.06,1.8,SW,3.5,-,0.01,Snow,Light Snow,230,2012-12-07 21:09:00
4:19 PM,33.8,32.0,93,30.06,2.5,Calm,Calm,-,0.01,Snow,Light Snow,0,2012-12-07 21:19:00
4:35 PM,32.0,32.0,100,30.06,2.0,Calm,Calm,-,0.02,Snow,Light Snow,0,2012-12-07 21:35:00
4:53 PM,32.0,30.9,96,30.09,1.8,Calm,Calm,-,0.04,Snow,Light Snow,0,2012-12-07 21:53:00
5:10 PM,32.0,32.0,100,30.05,2.0,Calm,Calm,-,0.02,Snow,Light Snow,0,2012-12-07 22:10:00
5:28 PM,32.0,32.0,100,30.05,2.0,Calm,Calm,-,0.02,,Overcast,0,2012-12-07 22:28:00
5:44 PM,32.0,32.0,100,30.06,2.5,Calm,Calm,-,0.02,,Overcast,0,2012-12-07 22:44:00
5:53 PM,32.0,32.0,100,30.09,2.5,Calm,Calm,-,0.02,,Overcast,0,2012-12-07 22:53:00
6:53 PM,32.0,32.0,100,30.08,2.5,Calm,Calm,-,0.00,,Overcast,0,2012-12-07 23:53:00
7:53 PM,32.0,32.0,100,30.05,2.0,Calm,Calm,-,N/A,,Overcast,0,2012-12-08 00:53:00
8:16 PM,32.0,32.0,100,30.05,1.8,Calm,Calm,-,0.00,,Overcast,0,2012-12-08 01:16:00
8:53 PM,32.0,32.0,100,30.08,1.5,Calm,Calm,-,0.00,,Overcast,0,2012-12-08 01:53:00
9:45 PM,32.0,32.0,100,30.05,1.5,Calm,Calm,-,N/A,,Overcast,0,2012-12-08 02:45:00
9:53 PM,32.0,32.0,100,30.05,1.5,Calm,Calm,-,N/A,,Overcast,0,2012-12-08 02:53:00
10:53 PM,32.0,32.0,100,30.07,1.2,Calm,Calm,-,N/A,,Overcast,0,2012-12-08 03:53:00
11:53 PM,32.0,32.0,100,30.06,1.2,Calm,Calm,-,N/A,,Overcast,0,2012-12-08 04:53:00